BEIDOU 8

Last updated on Jan. 28, 2020, 4:41 a.m. UTC

1 37384U 11013A   20027.42312022 -.00000175  00000-0  10000-3 0  9996
2 37384  59.0798  63.0434 0048963 205.6808 126.6626  1.00298995 32281
UTC
Height (km)
Latitude
Longitude
Inclination
Orbital Period
UTC large
Height (km)
Speed (km/s)
/
Latitude / Longitude
Inclination (degrees)
Orbital Period (minutes)
Azimuth
Elevation
Range (km)
Doppler Factor
iOS Compass Heading
iOS Angle

Next 30 passes for location: Hong Kong

Rise time Rise Azimuth (degrees) Set time Set Azimuth (degrees) Duration Max altitude (degrees)

No matching passes for this satellites